EW9686 Weather Reports


Display with metric or nautical units.
time (UTC)temp
F
wind
direction
speed
MPH
gust
MPH
rain 1hr
in
rain 24hr
in
rain mn
in
humidity
%
barometer
mb
20181219070017 24 0.0 0.0 0.00 0.00 0.00 74 1020.6
20181219065022 25 0.0 1.0 0.00 0.00 0.00 73 1020.6
20181219064022 25 0.0 1.0 0.00 0.00 0.00 73 1020.3
20181219063022 25 0.0 1.0 0.00 0.00 0.00 72 1020.3
20181219062022 25 0.0 1.0 0.00 0.00 0.00 72 1020.3
20181219061022 25 0.0 1.0 0.00 0.00 0.00 71 1020.3
20181219060022 26 0.0 1.0 0.00 0.00 0.00 71 1020.3
20181219055017 26 292 1.0 2.0 0.00 0.00 0.00 71 1020.2
20181219054022 25 0.0 1.0 0.00 0.00 0.00 71 1020.2
20181219053022 26 0.0 1.0 0.00 0.00 0.00 71 1020.3
20181219052021 26 0.0 1.0 0.00 0.00 0.00 70 1020.5
20181219051016 26 0.0 3.0 0.00 0.00 0.00 70 1020.5
20181219050017 26 0.0 1.0 0.00 0.00 0.00 69 1020.3
20181219045021 26 0.0 1.0 0.00 0.00 0.00 68 1020.2
20181219044021 26 270 1.0 3.0 0.00 0.00 0.00 68 1020.3
20181219043021 27 292 1.0 3.0 0.00 0.00 0.00 67 1020.2
20181219042021 27 0.0 1.0 0.00 0.00 0.00 67 1020.3
20181219041021 27 292 1.0 4.0 0.00 0.00 0.00 67 1020.2
20181219040021 27 0.0 1.0 0.00 0.00 0.00 68 1020.5
20181219035016 27 0.0 0.0 0.00 0.00 0.00 66 1020.6
20181219034021 27 0.0 1.0 0.00 0.00 0.00 66 1020.5
20181219033021 27 0.0 1.0 0.00 0.00 0.00 66 1020.7
20181219032021 27 0.0 1.0 0.00 0.00 0.00 64 1020.8
20181219031021 28 292 1.0 5.0 0.00 0.00 0.00 64 1020.7
20181219030021 28 292 1.0 4.0 0.00 0.00 0.00 64 1020.5
20181219025021 28 292 1.0 5.0 0.00 0.00 0.00 63 1020.5
20181219024019 28 0.0 1.0 0.00 0.00 0.00 63 1020.4
20181219023016 28 270 1.0 5.0 0.00 0.00 0.00 63 1020.6
20181219022021 28 292 1.0 5.0 0.00 0.00 0.00 64 1020.5
20181219021021 28 0.0 0.0 0.00 0.00 0.00 65 1020.4
20181219020021 28 0.0 1.0 0.00 0.00 0.00 64 1020.3
20181219015021 28 0.0 1.0 0.00 0.00 0.00 63 1020.3
20181219014021 28 0.0 0.0 0.00 0.00 0.00 62 1020.4
20181219013016 29 0.0 0.0 0.00 0.00 0.00 61 1020.5
20181219012016 29 0.0 2.0 0.00 0.00 0.00 60 1020.4
20181219011021 30 0.0 1.0 0.00 0.00 0.00 60 1020.5
20181219010021 30 292 1.0 6.0 0.00 0.00 0.00 59 1020.4
20181219005021 30 292 2.0 5.0 0.00 0.00 0.00 59 1020.6
20181219004021 30 292 3.0 9.0 0.00 0.00 0.00 58 1020.4
20181219003022 30 292 1.0 5.0 0.00 0.00 0.00 58 1020.4
20181219002021 31 292 3.0 8.0 0.00 0.00 0.00 58 1020.2
20181219001016 31 292 6.0 13.0 0.00 0.00 0.00 58 1020.2
20181219000021 31 292 4.0 9.0 0.00 0.00 0.00 58 1019.9
20181218235021 31 292 5.0 10.0 0.00 0.00 0.00 58 1020.0
20181218234021 31 292 6.0 14.0 0.00 0.00 0.00 57 1019.6
20181218233021 31 292 4.0 8.0 0.00 0.00 0.00 56 1019.7
20181218232021 32 292 4.0 8.0 0.00 0.00 0.00 56 1019.8
20181218231016 32 292 4.0 9.0 0.00 0.00 0.00 56 1019.8
20181218230016 32 292 1.0 7.0 0.00 0.00 0.00 55 1019.8
20181218225021 32 292 3.0 9.0 0.00 0.00 0.00 55 1019.7
20181218224021 32 292 3.0 9.0 0.00 0.00 0.00 55 1019.6
20181218223021 32 292 2.0 5.0 0.00 0.00 0.00 55 1019.7
20181218222021 33 292 3.0 7.0 0.00 0.00 0.00 54 1019.7
20181218221022 33 292 4.0 9.0 0.00 0.00 0.00 55 1019.4
20181218220016 33 292 4.0 8.0 0.00 0.00 0.00 54 1019.4
20181218215016 33 292 5.0 9.0 0.00 0.00 0.00 53 1019.4
20181218214021 34 292 4.0 9.0 0.00 0.00 0.00 52 1019.1
20181218213021 34 292 8.0 15.0 0.00 0.00 0.00 52 1019.0
20181218212021 34 292 8.0 25.0 0.00 0.00 0.00 50 1018.8
20181218211021 35 292 6.0 11.0 0.00 0.00 0.00 50 1018.8
20181218210021 35 292 5.0 10.0 0.00 0.00 0.00 50 1018.6
20181218205016 35 292 6.0 13.0 0.00 0.00 0.00 50 1018.4
20181218204022 36 292 3.0 8.0 0.00 0.00 0.00 50 1018.3
20181218203021 36 270 7.0 18.0 0.00 0.00 0.00 50 1018.3
20181218202021 36 292 8.0 20.0 0.00 0.00 0.00 50 1018.1
20181218201021 36 292 7.0 15.0 0.00 0.00 0.00 49 1018.2
20181218200021 36 270 10.0 18.0 0.00 0.00 0.00 50 1018.0
20181218195021 36 292 9.0 14.0 0.00 0.00 0.00 51 1017.8
20181218194016 36 270 8.0 18.0 0.00 0.00 0.00 51 1017.6
20181218193016 36 292 9.0 14.0 0.00 0.00 0.00 50 1017.5
20181218192021 36 270 8.0 16.0 0.00 0.00 0.00 51 1017.4
20181218191020 36 270 10.0 18.0 0.00 0.00 0.00 51 1017.3
20181218190021 36 292 10.0 19.0 0.00 0.00 0.00 51 1017.2
20181218185021 36 292 9.0 15.0 0.00 0.00 0.00 51 1017.1
20181218184021 36 292 9.0 22.0 0.00 0.00 0.00 50 1017.2
20181218183016 36 270 8.0 24.0 0.00 0.00 0.00 51 1017.1
20181218182016 35 292 8.0 20.0 0.00 0.00 0.00 51 1017.0
20181218181021 35 292 9.0 23.0 0.00 0.00 0.00 51 1017.0
20181218180021 36 292 5.0 10.0 0.00 0.00 0.00 52 1017.1
20181218175021 35 292 9.0 20.0 0.00 0.00 0.00 52 1016.9
20181218174021 35 292 12.0 24.0 0.00 0.00 0.00 52 1016.8
20181218173021 35 292 7.0 15.0 0.00 0.00 0.00 50 1017.0
20181218172016 35 270 10.0 18.0 0.00 0.00 0.00 50 1017.1
20181218171016 35 292 8.0 16.0 0.00 0.00 0.00 50 1017.2
20181218170021 35 292 7.0 16.0 0.00 0.00 0.00 49 1016.9
20181218165021 35 292 7.0 14.0 0.00 0.00 0.00 50 1017.0
20181218164021 35 292 7.0 18.0 0.00 0.00 0.00 50 1016.9
20181218163021 35 292 4.0 11.0 0.00 0.00 0.00 52 1017.1
20181218162021 35 292 8.0 20.0 0.00 0.00 0.00 51 1017.0
20181218161016 35 292 6.0 19.0 0.00 0.00 0.00 52 1016.9
20181218160021 34 292 11.0 23.0 0.00 0.00 0.00 52 1016.7
20181218155021 34 292 6.0 14.0 0.00 0.00 0.00 52 1016.8
20181218154021 34 292 6.0 13.0 0.00 0.00 0.00 52 1016.8
20181218153021 34 292 9.0 20.0 0.00 0.00 0.00 52 1016.9
20181218152021 34 292 8.0 19.0 0.00 0.00 0.00 53 1016.9
20181218151021 33 292 7.0 12.0 0.00 0.00 0.00 53 1017.0
20181218150016 33 292 7.0 24.0 0.00 0.00 0.00 52 1017.0
20181218145021 33 292 10.0 21.0 0.00 0.00 0.00 52 1016.7
20181218144021 33 292 8.0 16.0 0.00 0.00 0.00 55 1016.6
20181218143021 33 292 7.0 15.0 0.00 0.00 0.00 55 1016.6
20181218142021 32 292 11.0 22.0 0.00 0.00 0.00 55 1016.6
20181218141021 32 292 7.0 15.0 0.00 0.00 0.00 54 1016.4
20181218140021 32 292 9.0 18.0 0.00 0.00 0.00 55 1016.2
20181218135016 32 292 9.0 18.0 0.00 0.00 0.00 54 1016.1
20181218134021 32 292 9.0 21.0 0.00 0.00 0.00 54 1016.0
20181218133021 32 292 9.0 19.0 0.00 0.00 0.00 54 1015.7
20181218132020 32 292 7.0 18.0 0.00 0.00 0.00 55 1015.4
20181218131021 32 292 11.0 25.0 0.00 0.00 0.00 55 1015.4
20181218130021 32 292 10.0 22.0 0.00 0.00 0.00 55 1015.4
20181218125021 31 292 12.0 28.0 0.00 0.00 0.00 54 1014.9
20181218124016 31 292 10.0 21.0 0.00 0.00 0.00 56 1014.8
20181218123021 31 292 7.0 19.0 0.00 0.00 0.00 56 1014.7
20181218122021 31 292 9.0 20.0 0.00 0.00 0.00 56 1014.5
20181218121021 31 292 9.0 22.0 0.00 0.00 0.00 55 1014.5
20181218120024 32 292 11.0 21.0 0.00 0.00 0.00 55 1014.4
20181218115021 32 292 10.0 27.0 0.00 0.00 0.00 55 1013.9
20181218114021 32 292 11.0 24.0 0.00 0.00 0.00 55 1013.5
20181218113021 32 292 11.0 21.0 0.00 0.00 0.00 55 1013.6
20181218112021 32 292 9.0 19.0 0.00 0.00 0.00 56 1013.4
20181218111021 33 292 10.0 24.0 0.00 0.00 0.00 56 1013.4
20181218110021 33 292 11.0 23.0 0.00 0.00 0.00 56 1013.1
20181218105020 33 292 6.0 13.0 0.00 0.00 0.00 58 1012.8
20181218104021 33 292 8.0 15.0 0.00 0.00 0.00 58 1012.6
20181218103021 33 292 7.0 16.0 0.00 0.00 0.00 57 1012.3
20181218102016 34 292 11.0 24.0 0.00 0.00 0.00 56 1012.2
20181218101016 34 292 10.0 21.0 0.00 0.00 0.00 56 1012.0
20181218100021 34 292 11.0 24.0 0.00 0.00 0.00 56 1012.0
20181218095021 34 292 9.0 21.0 0.00 0.00 0.00 57 1011.9
20181218094021 34 292 6.0 14.0 0.00 0.00 0.00 58 1011.9
20181218093021 35 292 7.0 16.0 0.00 0.00 0.00 57 1011.7
20181218092021 35 292 7.0 16.0 0.00 0.00 0.00 56 1011.5
20181218091016 35 292 10.0 25.0 0.00 0.00 0.00 56 1011.5
20181218090016 35 292 5.0 13.0 0.00 0.00 0.00 55 1011.2
20181218085021 36 292 8.0 20.0 0.00 0.00 0.00 55 1011.0
20181218084021 36 292 9.0 19.0 0.00 0.00 0.00 54 1010.9
20181218083021 36 292 7.0 20.0 0.00 0.00 0.00 55 1010.7
20181218082021 37 292 8.0 21.0 0.00 0.00 0.00 54 1010.6
20181218081021 37 292 8.0 14.0 0.00 0.00 0.00 53 1010.5
20181218080016 37 292 12.0 31.0 0.00 0.00 0.00 52 1010.3
20181218075016 38 292 13.0 25.0 0.00 0.00 0.00 52 1010.3
20181218074021 38 292 10.0 23.0 0.00 0.00 0.00 54 1010.4
20181218073022 38 292 12.0 26.0 0.00 0.00 0.00 53 1010.0
20181218072021 39 292 13.0 23.0 0.00 0.00 0.00 53 1010.1
20181218071021 39 292 11.0 24.0 0.00 0.00 0.00 53 1010.0